SCP
0 0 0 0 -0 -0 -0 -0 -0 -0 -0 -0 0 0 0 0 0 0 0 0 0 0 0 0 0 0 0 0 0 0 1 1 1 1 0 0 0 0 0 0 0 0 0 0
0 0 0 0 -0 -0 -0 -0 -0 0 0 0 0 0 0 0 0 0 0 0 0 0 0 0 0 0 1 0 0 0 0 1 1 1 0 0 0 0 0 0 0 0 0 0
0 0 0 -0 -0 -0 0 0 0 0 0 0 0 0 0 0 0 0 0 0 0 0 0 0 0 0 0 0 0 0 1 1 1 0 0 0 0 0 0 0 0 0 0 0
0 0 0 0 0 0 0 0 0 0 0 0 0 0 0 0 0 0 0 0 0 0 0 0 0 0 0 1 0 1 1 1 1 0 0 0 0 0 0 0 0 0 0 0
0 0 -0 0 0 0 0 0 -0 0 0 0 0 0 0 0 0 0 0 0 0 0 0 0 0 0 0 0 0 1 1 1 0 0 0 0 0 0 0 0 0 0 0 0
0 0 -0 0 0 0 0 0 0 0 0 -0 0 -0 0 0 0 0 -0 0 0 0 0 0 0 0 1 0 1 1 1 0 0 0 0 0 0 0 0 0 0 0 -0 -0
0 0 -0 0 0 0 0 0 -0 -0 -0 -0 -0 -0 -0 0 0 0 0 0 0 0 0 0 0 0 1 1 0 0 0 0 0 0 0 0 0 0 0 0 0 0 -0 -0
0 -0 -0 0 -0 0 0 -0 -0 -0 -0 -0 -0 -0 0 0 -0 0 0 -0 0 0 0 0 0 0 1 0 0 0 0 0 0 0 0 0 0 0 0 0 -0 -0 -0 -0
0 -0 -0 -0 0 -0 -0 -0 0 -0 0 0 0 -0 -0 -0 -0 -0 -0 0 0 0 0 0 0 0 0 0 0 0 0 0 0 0 0 0 0 0 0 0 0 -0 -0 -0
-0 -0 -0 -0 -0 -0 -0 -0 -0 0 0 0 -0 -0 -0 -0 -0 -0 -0 0 0 0 0 0 0 0 0 0 0 0 0 0 0 0 0 0 0 0 0 -0 -0 -0 0 0
0 0 -0 -0 -0 -0 0 0 -0 0 0 -0 -0 -0 -0 0 0 -0 0 0 0 0 0 0 0 0 0 0 0 0 0 0 0 0 0 0 0 0 0 -0 0 0 0 0
0 -0 -0 -0 0 0 0 -0 -0 -0 -0 -0 -0 -0 -0 0 0 -0 -0 0 0 0 0 0 0 0 0 0 0 0 0 0 0 0 0 0 0 -0 -0 -0 -0 0 0 -0
0 -0 0 0 0 0 0 -0 -0 -0 0 -0 -0 -0 -0 0 0 0 0 -0 0 0 0 0 0 0 0 0 0 0 0 0 0 0 0 0 0 -0 -0 0 0 0 -0 -0
0 0 0 0 0 -0 -0 -0 -0 0 0 0 0 -0 -0 0 0 0 0 0 0 0 0 0 0 0 0 0 0 0 0 0 0 0 0 0 0 0 0 0 0 0 0 -0
0 0 0 -0 0 -0 -0 -0 -0 0 0 -0 -0 -0 -0 -0 0 0 0 0 0 0 0 0 0 0 0 0 0 0 0 0 0 0 0 0 0 0 0 0 0 -0 -0 -0
0 0 0 -0 -0 -0 -0 -0 0 0 -0 -0 0 -0 -0 -0 -0 -0 0 0 0 0 0 0 0 0 0 0 0 0 0 0 0 0 0 0 0 0 0 0 0 -0 -0 -0
0 -0 -0 -0 -0 -0 -0 -0 0 -0 -0 0 -0 -0 -0 -0 0 0 0 0 0 0 0 0 0 0 0 0 0 0 0 0 0 0 0 0 0 0 0 0 0 -0 -0 -0
0 -0 -0 -0 -0 -0 -0 -0 0 0 -0 -0 -0 0 0 0 0 0 0 0 0 0 0 0 0 0 0 0 0 0 0 0 0 0 0 0 0 0 0 0 -0 -0 -0 -0
0 -0 -0 -0 0 0 -0 0 0 -0 0 0 0 0 0 0 0 0 0 0 0 0 0 0 0 0 0 0 0 0 0 0 0 0 0 0 0 0 0 -0 -0 -0 0 -0
-0 -0 -0 -0 0 -0 0 0 0 0 0 0 0 0 0 0 0 0 0 0 0 0 0 0 0 0 0 0 0 0 0 0 0 0 0 0 0 0 0 -0 -0 -0 -0 -0
-0 -0 -0 -0 -0 -0 0 0 0 0 0 0 0 0 0 0 0 0 0 0 0 0 0 0 0 0 0 0 0 0 0 0 0 0 0 0 0 0 -0 -0 -0 0 0 -0
-0 -0 -0 -0 0 0 0 0 0 0 0 0 0 0 0 0 0 0 0 0 0 0 0 0 0 0 0 0 0 0 0 0 0 0 0 0 0 0 -0 -0 -0 0 -0 0
-0 0 -0 0 0 0 0 0 0 0 0 0 0 0 0 0 0 0 0 0 0 0 0 0 0 0 0 0 0 0 0 0 0 0 0 0 0 -0 -0 -0 0 0 0 -0
-0 0 0 0 0 0 0 0 0 0 0 0 0 0 0 0 0 0 0 0 0 0 0 0 0 0 0 0 0 0 0 0 0 0 0 0 0 -0 -0 0 0 0 0 -0
0 0 0 0 0 0 0 0 0 0 0 0 0 0 0 0 0 0 0 0 0 0 0 0 0 0 0 0 0 0 0 0 0 0 0 0 -0 -0 -0 0 0 0 0 0
0 0 0 0 0 0 0 0 0 0 0 0 0 0 0 0 0 0 0 0 0 0 0 0 0 0 0 0 0 0 0 0 0 0 -0 -0 -0 -0 0 0 0 0 0 0
0 0 0 0 0 0 0 0 0 0 0 0 0 0 0 0 0 0 0 0 0 0 0 0 0 0 0 0 0 0 0 0 0 -0 -0 -0 -0 -0 0 0 0 0 0 0
Wind_Speed_500mb
42 51 52 56 55 50 46 48 42 49 56 49 39 38 45 40 33 39 42 44 38 40 42 40 41 38 35 30 24 24 29 28 26 30 38 54 10 57 91 88 76 67 60 50
47 50 54 52 54 51 54 50 45 44 44 35 14 28 26 40 49 47 51 52 44 45 48 49 44 40 35 30 23 21 27 25 25 23 38 37 54 65 89 86 81 59 63 60
39 40 43 40 40 28 30 29 30 34 42 37 36 36 42 48 50 53 56 55 60 58 53 53 43 43 41 31 22 21 24 35 39 46 55 81 84 78 77 87 84 78 66 57
18 41 23 18 33 27 22 29 28 41 45 40 36 35 45 48 57 63 63 64 52 41 41 48 39 41 39 31 23 23 26 43 52 64 71 68 62 63 79 79 79 75 69 56
9 17 34 22 21 20 28 37 51 34 21 29 47 59 67 56 48 51 55 48 52 57 52 38 39 34 38 33 26 22 50 55 61 67 77 72 77 69 82 88 80 73 63 55
14 22 22 24 22 27 39 41 7 22 37 48 48 26 39 38 45 62 70 73 80 65 55 52 50 43 31 35 25 40 61 61 73 86 89 90 71 81 86 85 84 73 61 53
23 17 20 12 35 41 19 27 70 61 58 62 37 48 83 84 89 81 80 79 63 52 57 56 49 46 31 32 37 56 67 71 78 84 81 83 82 86 83 89 82 73 63 54
14 21 15 50 57 9 26 54 55 67 69 66 69 84 92 90 88 88 86 74 58 54 57 52 48 44 35 46 46 67 91 91 98 84 91 99 90 90 86 86 80 73 63 58
10 20 55 61 36 59 58 64 76 69 72 76 81 89 95 100 104 101 96 87 70 62 53 49 44 44 57 53 65 81 90 92 87 89 90 69 88 94 86 74 72 64 57 58
30 27 37 64 60 48 65 65 62 77 77 79 84 95 98 92 63 34 28 57 59 62 54 51 50 54 71 76 88 90 94 94 94 108 109 85 92 85 81 71 60 56 46 48
34 44 49 40 42 54 61 62 78 82 75 75 74 61 61 27 42 26 37 48 57 57 57 55 76 84 77 94 100 105 108 107 106 110 114 92 70 65 68 55 53 57 51 47
11 36 17 35 56 56 56 74 78 83 80 59 44 35 28 30 46 67 79 78 79 72 74 90 88 92 99 100 101 111 124 122 129 125 114 89 88 87 71 68 60 60 63 65
14 38 39 59 49 52 64 70 72 69 52 38 28 19 22 34 53 62 78 88 96 100 104 109 119 117 113 113 115 117 125 131 126 118 100 94 96 93 93 82 76 69 67 66
22 41 40 34 53 63 61 65 58 39 28 22 15 19 25 37 55 68 70 89 100 106 109 111 116 111 112 115 117 120 125 121 117 104 102 101 98 97 82 93 90 83 72 67
40 36 36 44 51 58 60 54 34 32 21 21 19 23 31 41 59 69 75 86 96 101 103 103 110 106 108 112 121 132 131 110 103 108 95 88 78 70 80 90 90 86 76 68
37 31 36 42 49 58 51 45 27 24 19 20 35 40 42 51 59 68 82 84 101 96 97 104 108 109 110 116 109 115 119 121 118 107 94 86 86 87 91 83 78 66 55 50
34 37 42 49 56 47 44 36 29 19 19 29 37 51 61 67 71 75 70 82 97 100 97 107 117 118 121 120 124 126 117 108 109 101 100 86 92 88 79 72 66 56 56 57
28 30 35 42 41 39 39 32 27 17 23 33 42 60 69 71 77 84 89 93 95 99 102 109 115 119 120 124 125 119 109 106 100 98 91 91 87 77 70 67 62 62 60 60
27 32 36 33 35 33 31 30 23 16 22 45 65 71 76 77 84 86 91 97 99 102 95 103 112 117 124 115 111 104 96 98 89 88 87 79 74 71 65 62 61 56 51 49
28 32 30 30 31 30 27 26 24 23 33 59 75 77 72 75 84 89 93 88 92 106 101 116 119 114 108 107 98 83 88 90 91 82 77 71 73 70 64 61 57 52 50 48
28 29 29 30 30 30 27 24 28 34 47 57 71 78 81 90 95 100 101 100 90 109 112 107 106 99 87 84 88 93 82 74 79 75 70 75 71 65 61 57 53 50 49 49
25 26 27 29 29 30 30 26 25 34 50 71 79 80 80 71 70 75 81 94 92 88 87 85 85 86 89 85 79 78 77 71 69 72 74 67 66 62 57 54 51 48 47 45
26 25 24 25 27 29 28 28 29 39 56 61 68 62 74 71 73 84 80 73 77 76 77 90 91 82 75 78 75 73 70 68 69 68 69 67 62 57 55 52 49 47 44 42
21 25 22 22 24 34 37 29 37 51 53 62 64 59 67 73 64 65 65 66 67 77 93 86 80 78 78 70 67 65 68 67 65 64 65 63 59 54 54 49 47 44 42 40
19 22 22 25 27 35 36 34 50 58 60 62 56 50 51 52 70 58 56 69 83 79 84 77 75 67 61 62 62 61 61 60 61 62 60 62 59 55 50 46 45 45 41 39
18 21 26 24 24 27 34 38 51 54 56 52 48 47 49 53 64 71 66 68 68 71 69 63 56 56 57 58 58 57 59 67 61 57 58 56 53 53 50 48 47 44 40 39
18 20 21 24 24 26 34 41 46 46 51 46 52 50 52 52 57 59 62 65 61 54 51 52 54 55 57 57 54 59 58 56 60 57 53 52 51 52 50 48 46 45 44 44
Wind_Direction_500mb
262 280 281 278 278 279 272 268 262 275 276 288 286 308 322 313 288 268 279 289 288 289 282 282 282 263 261 273 270 262 233 227 218 215 214 198 112 155 166 161 156 156 153 155
282 282 273 272 272 264 267 278 287 294 287 286 28 297 298 298 287 290 290 285 287 293 279 271 267 260 260 264 265 249 221 186 193 198 181 182 189 172 152 144 145 152 154 158
275 290 301 285 284 275 301 310 321 297 299 308 303 299 303 300 294 287 280 274 285 294 277 260 255 248 250 253 253 244 223 174 159 163 164 149 142 152 141 146 153 154 155 145
283 290 276 309 318 283 293 294 305 299 292 302 306 302 290 290 286 279 274 281 281 277 272 256 254 246 241 240 237 236 192 168 170 162 156 157 155 152 155 153 147 143 142 140
258 267 280 296 344 346 333 309 304 304 323 328 306 294 284 287 281 278 273 271 274 279 274 267 252 253 236 230 222 216 168 164 163 168 171 169 160 162 159 146 137 137 138 142
248 274 291 351 34 345 324 301 75 328 312 304 313 289 285 294 283 280 278 274 272 267 258 254 252 249 235 218 199 181 174 175 160 157 155 159 148 155 144 140 143 136 136 136
263 264 277 83 338 335 292 332 322 320 307 307 295 283 290 293 284 274 271 268 262 251 246 245 241 235 230 205 170 178 169 161 160 160 161 157 160 162 149 143 136 138 137 130
298 293 288 347 335 310 313 313 305 307 309 300 298 294 289 285 279 274 268 263 250 240 235 231 224 211 214 180 173 176 161 156 151 149 152 149 144 153 147 139 135 130 126 118
281 289 306 307 315 309 315 314 311 308 308 305 297 292 291 287 282 272 257 248 241 229 221 213 203 192 182 171 175 170 165 160 159 156 154 157 166 154 142 137 128 123 119 113
298 287 304 315 314 307 318 307 308 306 305 303 297 297 298 300 299 276 246 214 207 206 200 193 183 182 164 165 166 164 157 156 153 150 146 149 146 141 132 123 121 122 120 113
271 283 305 306 311 311 315 316 314 315 311 308 307 314 326 356 28 76 149 155 167 180 181 173 164 159 162 164 165 155 144 143 138 136 136 126 132 125 125 126 128 132 123 116
269 307 300 302 316 320 322 317 318 316 319 327 335 349 8 45 66 95 114 131 138 148 151 150 156 157 162 165 169 158 142 141 139 139 142 145 139 132 130 137 135 128 119 115
311 318 315 310 313 320 320 322 329 327 332 337 356 48 66 85 101 100 113 122 124 125 128 132 141 149 155 154 157 155 149 147 143 142 140 139 129 126 122 115 112 112 108 106
335 333 320 313 320 324 332 335 338 337 338 353 46 102 108 106 119 116 112 126 131 132 133 137 139 137 142 151 153 153 150 147 145 136 131 128 126 121 118 119 114 106 103 102
327 329 312 315 325 334 341 345 350 351 11 46 68 109 120 125 125 126 124 126 136 138 135 142 140 138 146 150 148 142 140 132 131 130 124 124 121 124 121 120 114 106 102 96
331 339 331 325 330 335 348 354 352 3 29 71 89 97 110 110 119 123 126 129 135 132 134 139 136 131 134 130 129 133 138 140 141 135 128 131 130 124 115 105 100 98 97 94
344 336 335 334 333 343 353 353 358 18 61 88 98 118 121 117 113 116 127 122 125 130 140 140 136 140 143 143 141 136 134 133 136 126 124 121 120 112 106 107 108 107 106 108
340 333 337 338 340 354 360 6 11 45 88 105 111 117 112 115 107 112 119 122 124 126 129 137 144 146 145 142 136 134 132 130 127 122 120 115 114 118 116 111 110 107 104 101
345 351 347 350 360 9 11 13 28 49 94 103 107 104 106 105 108 112 118 119 121 124 122 138 146 143 136 134 134 134 126 124 118 119 119 115 112 110 112 113 109 107 107 103
353 357 356 2 16 23 28 34 53 82 107 112 107 105 101 102 106 108 115 112 118 128 136 134 132 132 135 134 128 128 130 129 122 116 115 116 114 115 115 114 113 113 109 106
0 360 4 14 29 34 46 55 86 100 117 113 115 109 110 110 114 118 109 106 112 125 132 134 131 122 122 131 131 126 120 122 120 119 123 119 117 117 117 116 114 113 111 107
7 7 7 27 38 47 60 68 92 120 122 113 111 109 106 106 107 105 110 111 112 114 119 123 127 130 128 126 127 126 120 122 126 123 117 122 121 118 117 117 117 114 110 110
15 21 21 39 45 65 76 88 101 123 119 112 109 108 110 109 111 113 115 120 121 120 125 127 125 125 129 125 123 126 126 125 124 125 124 121 119 121 121 118 117 116 116 116
29 23 45 53 64 79 84 98 120 124 116 109 103 107 113 108 106 113 117 128 131 130 124 125 127 126 124 126 127 126 126 126 125 123 121 122 123 124 119 120 119 119 122 124
46 35 61 70 68 82 91 108 130 123 114 108 108 112 115 116 120 122 124 128 129 125 126 126 123 121 125 126 127 127 126 126 125 126 128 127 122 123 125 125 124 121 120 119
58 56 56 73 73 88 102 114 129 121 108 104 110 116 118 125 126 122 121 126 126 124 124 121 124 128 128 127 128 129 132 132 129 129 127 126 128 126 128 130 126 124 125 124
72 76 62 64 86 92 115 116 116 110 103 107 111 114 116 119 122 124 129 130 128 127 130 133 130 131 131 133 133 131 129 133 131 129 131 131 132 132 131 131 130 128 127 125
Wind_Speed_850mb
42 51 52 56 55 50 46 48 42 49 56 49 39 38 45 40 33 39 42 44 38 40 42 40 41 38 35 30 24 24 29 28 26 30 38 54 10 57 91 88 76 67 60 50
47 50 54 52 54 51 54 50 45 44 44 35 14 28 26 40 49 47 51 52 44 45 48 49 44 40 35 30 23 21 27 25 25 23 38 37 54 65 89 86 81 59 63 60
39 40 43 40 40 28 30 29 30 34 42 37 36 36 42 48 50 53 56 55 60 58 53 53 43 43 41 31 22 21 24 35 39 46 55 81 84 78 77 87 84 78 66 57
18 41 23 18 33 27 22 29 28 41 45 40 36 35 45 48 57 63 63 64 52 41 41 48 39 41 39 31 23 23 26 43 52 64 71 68 62 63 79 79 79 75 69 56
9 17 34 22 21 20 28 37 51 34 21 29 47 59 67 56 48 51 55 48 52 57 52 38 39 34 38 33 26 22 50 55 61 67 77 72 77 69 82 88 80 73 63 55
14 22 22 24 22 27 39 41 7 22 37 48 48 26 39 38 45 62 70 73 80 65 55 52 50 43 31 35 25 40 61 61 73 86 89 90 71 81 86 85 84 73 61 53
23 17 20 12 35 41 19 27 70 61 58 62 37 48 83 84 89 81 80 79 63 52 57 56 49 46 31 32 37 56 67 71 78 84 81 83 82 86 83 89 82 73 63 54
14 21 15 50 57 9 26 54 55 67 69 66 69 84 92 90 88 88 86 74 58 54 57 52 48 44 35 46 46 67 91 91 98 84 91 99 90 90 86 86 80 73 63 58
10 20 55 61 36 59 58 64 76 69 72 76 81 89 95 100 104 101 96 87 70 62 53 49 44 44 57 53 65 81 90 92 87 89 90 69 88 94 86 74 72 64 57 58
30 27 37 64 60 48 65 65 62 77 77 79 84 95 98 92 63 34 28 57 59 62 54 51 50 54 71 76 88 90 94 94 94 108 109 85 92 85 81 71 60 56 46 48
34 44 49 40 42 54 61 62 78 82 75 75 74 61 61 27 42 26 37 48 57 57 57 55 76 84 77 94 100 105 108 107 106 110 114 92 70 65 68 55 53 57 51 47
11 36 17 35 56 56 56 74 78 83 80 59 44 35 28 30 46 67 79 78 79 72 74 90 88 92 99 100 101 111 124 122 129 125 114 89 88 87 71 68 60 60 63 65
14 38 39 59 49 52 64 70 72 69 52 38 28 19 22 34 53 62 78 88 96 100 104 109 119 117 113 113 115 117 125 131 126 118 100 94 96 93 93 82 76 69 67 66
22 41 40 34 53 63 61 65 58 39 28 22 15 19 25 37 55 68 70 89 100 106 109 111 116 111 112 115 117 120 125 121 117 104 102 101 98 97 82 93 90 83 72 67
40 36 36 44 51 58 60 54 34 32 21 21 19 23 31 41 59 69 75 86 96 101 103 103 110 106 108 112 121 132 131 110 103 108 95 88 78 70 80 90 90 86 76 68
37 31 36 42 49 58 51 45 27 24 19 20 35 40 42 51 59 68 82 84 101 96 97 104 108 109 110 116 109 115 119 121 118 107 94 86 86 87 91 83 78 66 55 50
34 37 42 49 56 47 44 36 29 19 19 29 37 51 61 67 71 75 70 82 97 100 97 107 117 118 121 120 124 126 117 108 109 101 100 86 92 88 79 72 66 56 56 57
28 30 35 42 41 39 39 32 27 17 23 33 42 60 69 71 77 84 89 93 95 99 102 109 115 119 120 124 125 119 109 106 100 98 91 91 87 77 70 67 62 62 60 60
27 32 36 33 35 33 31 30 23 16 22 45 65 71 76 77 84 86 91 97 99 102 95 103 112 117 124 115 111 104 96 98 89 88 87 79 74 71 65 62 61 56 51 49
28 32 30 30 31 30 27 26 24 23 33 59 75 77 72 75 84 89 93 88 92 106 101 116 119 114 108 107 98 83 88 90 91 82 77 71 73 70 64 61 57 52 50 48
28 29 29 30 30 30 27 24 28 34 47 57 71 78 81 90 95 100 101 100 90 109 112 107 106 99 87 84 88 93 82 74 79 75 70 75 71 65 61 57 53 50 49 49
25 26 27 29 29 30 30 26 25 34 50 71 79 80 80 71 70 75 81 94 92 88 87 85 85 86 89 85 79 78 77 71 69 72 74 67 66 62 57 54 51 48 47 45
26 25 24 25 27 29 28 28 29 39 56 61 68 62 74 71 73 84 80 73 77 76 77 90 91 82 75 78 75 73 70 68 69 68 69 67 62 57 55 52 49 47 44 42
21 25 22 22 24 34 37 29 37 51 53 62 64 59 67 73 64 65 65 66 67 77 93 86 80 78 78 70 67 65 68 67 65 64 65 63 59 54 54 49 47 44 42 40
19 22 22 25 27 35 36 34 50 58 60 62 56 50 51 52 70 58 56 69 83 79 84 77 75 67 61 62 62 61 61 60 61 62 60 62 59 55 50 46 45 45 41 39
18 21 26 24 24 27 34 38 51 54 56 52 48 47 49 53 64 71 66 68 68 71 69 63 56 56 57 58 58 57 59 67 61 57 58 56 53 53 50 48 47 44 40 39
18 20 21 24 24 26 34 41 46 46 51 46 52 50 52 52 57 59 62 65 61 54 51 52 54 55 57 57 54 59 58 56 60 57 53 52 51 52 50 48 46 45 44 44
Wind_Direction_850mb
262 280 281 278 278 279 272 268 262 275 276 288 286 308 322 313 288 268 279 289 288 289 282 282 282 263 261 273 270 262 233 227 218 215 214 198 112 155 166 161 156 156 153 155
282 282 273 272 272 264 267 278 287 294 287 286 28 297 298 298 287 290 290 285 287 293 279 271 267 260 260 264 265 249 221 186 193 198 181 182 189 172 152 144 145 152 154 158
275 290 301 285 284 275 301 310 321 297 299 308 303 299 303 300 294 287 280 274 285 294 277 260 255 248 250 253 253 244 223 174 159 163 164 149 142 152 141 146 153 154 155 145
283 290 276 309 318 283 293 294 305 299 292 302 306 302 290 290 286 279 274 281 281 277 272 256 254 246 241 240 237 236 192 168 170 162 156 157 155 152 155 153 147 143 142 140
258 267 280 296 344 346 333 309 304 304 323 328 306 294 284 287 281 278 273 271 274 279 274 267 252 253 236 230 222 216 168 164 163 168 171 169 160 162 159 146 137 137 138 142
248 274 291 351 34 345 324 301 75 328 312 304 313 289 285 294 283 280 278 274 272 267 258 254 252 249 235 218 199 181 174 175 160 157 155 159 148 155 144 140 143 136 136 136
263 264 277 83 338 335 292 332 322 320 307 307 295 283 290 293 284 274 271 268 262 251 246 245 241 235 230 205 170 178 169 161 160 160 161 157 160 162 149 143 136 138 137 130
298 293 288 347 335 310 313 313 305 307 309 300 298 294 289 285 279 274 268 263 250 240 235 231 224 211 214 180 173 176 161 156 151 149 152 149 144 153 147 139 135 130 126 118
281 289 306 307 315 309 315 314 311 308 308 305 297 292 291 287 282 272 257 248 241 229 221 213 203 192 182 171 175 170 165 160 159 156 154 157 166 154 142 137 128 123 119 113
298 287 304 315 314 307 318 307 308 306 305 303 297 297 298 300 299 276 246 214 207 206 200 193 183 182 164 165 166 164 157 156 153 150 146 149 146 141 132 123 121 122 120 113
271 283 305 306 311 311 315 316 314 315 311 308 307 314 326 356 28 76 149 155 167 180 181 173 164 159 162 164 165 155 144 143 138 136 136 126 132 125 125 126 128 132 123 116
269 307 300 302 316 320 322 317 318 316 319 327 335 349 8 45 66 95 114 131 138 148 151 150 156 157 162 165 169 158 142 141 139 139 142 145 139 132 130 137 135 128 119 115
311 318 315 310 313 320 320 322 329 327 332 337 356 48 66 85 101 100 113 122 124 125 128 132 141 149 155 154 157 155 149 147 143 142 140 139 129 126 122 115 112 112 108 106
335 333 320 313 320 324 332 335 338 337 338 353 46 102 108 106 119 116 112 126 131 132 133 137 139 137 142 151 153 153 150 147 145 136 131 128 126 121 118 119 114 106 103 102
327 329 312 315 325 334 341 345 350 351 11 46 68 109 120 125 125 126 124 126 136 138 135 142 140 138 146 150 148 142 140 132 131 130 124 124 121 124 121 120 114 106 102 96
331 339 331 325 330 335 348 354 352 3 29 71 89 97 110 110 119 123 126 129 135 132 134 139 136 131 134 130 129 133 138 140 141 135 128 131 130 124 115 105 100 98 97 94
344 336 335 334 333 343 353 353 358 18 61 88 98 118 121 117 113 116 127 122 125 130 140 140 136 140 143 143 141 136 134 133 136 126 124 121 120 112 106 107 108 107 106 108
340 333 337 338 340 354 360 6 11 45 88 105 111 117 112 115 107 112 119 122 124 126 129 137 144 146 145 142 136 134 132 130 127 122 120 115 114 118 116 111 110 107 104 101
345 351 347 350 360 9 11 13 28 49 94 103 107 104 106 105 108 112 118 119 121 124 122 138 146 143 136 134 134 134 126 124 118 119 119 115 112 110 112 113 109 107 107 103
353 357 356 2 16 23 28 34 53 82 107 112 107 105 101 102 106 108 115 112 118 128 136 134 132 132 135 134 128 128 130 129 122 116 115 116 114 115 115 114 113 113 109 106
0 360 4 14 29 34 46 55 86 100 117 113 115 109 110 110 114 118 109 106 112 125 132 134 131 122 122 131 131 126 120 122 120 119 123 119 117 117 117 116 114 113 111 107
7 7 7 27 38 47 60 68 92 120 122 113 111 109 106 106 107 105 110 111 112 114 119 123 127 130 128 126 127 126 120 122 126 123 117 122 121 118 117 117 117 114 110 110
15 21 21 39 45 65 76 88 101 123 119 112 109 108 110 109 111 113 115 120 121 120 125 127 125 125 129 125 123 126 126 125 124 125 124 121 119 121 121 118 117 116 116 116
29 23 45 53 64 79 84 98 120 124 116 109 103 107 113 108 106 113 117 128 131 130 124 125 127 126 124 126 127 126 126 126 125 123 121 122 123 124 119 120 119 119 122 124
46 35 61 70 68 82 91 108 130 123 114 108 108 112 115 116 120 122 124 128 129 125 126 126 123 121 125 126 127 127 126 126 125 126 128 127 122 123 125 125 124 121 120 119
58 56 56 73 73 88 102 114 129 121 108 104 110 116 118 125 126 122 121 126 126 124 124 121 124 128 128 127 128 129 132 132 129 129 127 126 128 126 128 130 126 124 125 124
72 76 62 64 86 92 115 116 116 110 103 107 111 114 116 119 122 124 129 130 128 127 130 133 130 131 131 133 133 131 129 133 131 129 131 131 132 132 131 131 130 128 127 125